TimeEST,TemperatureF,Dew PointF,Humidity,Sea Level PressureIn,VisibilityMPH,Wind Direction,Wind SpeedMPH,Gust SpeedMPH,PrecipitationIn,Events,Conditions,WindDirDegrees,DateUTC
12:53 AM,37.9,35.1,89,29.75,9.0,Calm,Calm,-,0.02,Rain,Light Rain,0,2012-12-29 05:53:00
1:53 AM,42.1,37.0,82,29.69,10.0,SSE,3.5,-,0.03,,Overcast,150,2012-12-29 06:53:00
2:53 AM,42.1,37.9,85,29.69,10.0,WSW,4.6,-,0.00,,Overcast,240,2012-12-29 07:53:00
3:53 AM,43.0,35.1,74,29.66,10.0,SSW,10.4,-,N/A,,Overcast,210,2012-12-29 08:53:00
4:46 AM,41.0,37.4,87,29.73,6.0,West,5.8,-,0.01,Rain,Rain,270,2012-12-29 09:46:00
4:53 AM,41.0,37.0,86,29.72,6.0,WSW,13.8,19.6,0.02,Rain,Light Rain,240,2012-12-29 09:53:00
5:16 AM,39.2,37.4,93,29.75,4.0,West,12.7,-,0.02,Rain,Light Rain,260,2012-12-29 10:16:00
5:36 AM,39.2,37.4,93,29.76,5.0,SW,6.9,-,0.04,Rain,Light Rain,230,2012-12-29 10:36:00
5:50 AM,39.2,37.4,93,29.76,6.0,SW,12.7,18.4,0.05,Rain,Light Rain,230,2012-12-29 10:50:00
5:53 AM,39.0,37.0,93,29.74,6.0,SW,11.5,-,0.05,Rain,Light Rain,230,2012-12-29 10:53:00
6:53 AM,37.9,36.0,93,29.74,6.0,SW,9.2,-,0.01,Rain,Light Rain,230,2012-12-29 11:53:00
7:46 AM,37.4,35.6,93,29.76,6.0,SSW,8.1,-,0.02,Rain,Light Rain,210,2012-12-29 12:46:00
7:53 AM,37.0,36.0,96,29.75,6.0,SSW,9.2,-,0.02,Rain,Light Rain,210,2012-12-29 12:53:00
8:24 AM,37.4,35.6,93,29.76,4.0,SSW,8.1,-,0.00,Rain,Light Rain,210,2012-12-29 13:24:00
8:53 AM,37.9,36.0,93,29.76,4.0,SSW,9.2,-,0.01,Rain,Light Rain,210,2012-12-29 13:53:00
9:53 AM,39.0,36.0,89,29.78,4.0,WSW,17.3,21.9,0.05,Rain,Rain,250,2012-12-29 14:53:00
10:07 AM,39.2,37.4,93,29.80,10.0,WSW,11.5,21.9,0.00,,Mostly Cloudy,240,2012-12-29 15:07:00
10:21 AM,42.8,37.4,81,29.80,10.0,WSW,13.8,23.0,0.00,,Mostly Cloudy,250,2012-12-29 15:21:00
10:53 AM,41.0,36.0,82,29.81,10.0,WSW,15.0,-,0.00,,Mostly Cloudy,240,2012-12-29 15:53:00
11:32 AM,39.2,33.8,81,29.83,10.0,West,12.7,24.2,0.00,Rain,Light Rain,280,2012-12-29 16:32:00
11:53 AM,39.0,33.1,79,29.81,10.0,West,13.8,23.0,0.00,Rain,Light Rain,270,2012-12-29 16:53:00
12:53 PM,39.9,32.0,73,29.81,10.0,West,16.1,23.0,0.01,,Overcast,270,2012-12-29 17:53:00
1:53 PM,37.0,30.0,76,29.83,10.0,West,12.7,-,0.00,,Overcast,270,2012-12-29 18:53:00
2:53 PM,36.0,28.9,76,29.86,10.0,West,10.4,19.6,N/A,,Overcast,260,2012-12-29 19:53:00
3:53 PM,35.1,28.9,78,29.89,9.0,WSW,10.4,-,0.00,Snow,Light Snow,250,2012-12-29 20:53:00
4:53 PM,34.0,28.9,82,29.93,6.0,West,11.5,-,0.00,Snow,Light Snow,260,2012-12-29 21:53:00
5:53 PM,33.1,28.0,82,29.95,9.0,West,13.8,-,0.00,Snow,Light Snow,260,2012-12-29 22:53:00
6:20 PM,33.8,28.4,81,29.98,8.0,West,11.5,-,0.00,Snow,Light Snow,260,2012-12-29 23:20:00
6:37 PM,33.8,28.4,81,29.99,6.0,West,8.1,-,0.00,Snow,Light Snow,260,2012-12-29 23:37:00
6:53 PM,33.1,28.0,82,30.00,6.0,West,6.9,-,0.00,Snow,Light Snow,270,2012-12-29 23:53:00
7:18 PM,33.8,26.6,75,30.01,8.0,West,11.5,-,0.01,Snow,Light Snow,280,2012-12-30 00:18:00
7:53 PM,32.0,27.0,82,30.03,6.0,WNW,8.1,-,0.01,Snow,Light Snow,290,2012-12-30 00:53:00
8:53 PM,30.9,28.0,89,30.05,6.0,West,9.2,-,0.00,Snow,Light Snow,280,2012-12-30 01:53:00
9:41 PM,32.0,26.6,80,30.07,8.0,West,9.2,18.4,0.00,Snow,Light Snow,270,2012-12-30 02:41:00
9:53 PM,32.0,26.1,79,30.08,9.0,West,15.0,19.6,0.00,Snow,Light Snow,260,2012-12-30 02:53:00
10:53 PM,30.9,23.0,72,30.10,10.0,West,18.4,-,0.00,,Overcast,260,2012-12-30 03:53:00
11:53 PM,30.9,21.0,67,30.14,10.0,West,16.1,24.2,0.00,,Overcast,270,2012-12-30 04:53:00